Starlink 35757

operational
NORAD ID: 66270 Int'l Des: 2025-247 Owner: SPXS Country: US Constellation: starlink
NOTLE

Über Starlink 35757

Beschreibung wird geladen...

Live-Position

3D-Globus wird geladen...

Nächste Überflüge

Höhenverlauf

Altitude vs Time

uPlot chart will show altitude changes over time

Zweizeiliger Elementsatz

1 66270U 25247F 25351.05292465 .00017329 00000-0 44176-3 0 9997
2 66270 53.1588 217.2694 0001467 43.8245 316.2876 15.39652116 8402
Epoch: 17. Dez. 2025 • Age: 12 hours

Aktueller Status

Höhe 449.2 km
Geschwindigkeit 7.64 km/s
Subsatellitenpunkt -9.70°S, 84.14°W
Startdatum 31. Okt. 2025
Alter 0.1 years
Typ internet

Technische Details

Klassifizierung Payload
Masse 575.00 kg
Trockenmasse 530.00 kg
Gesamtmasse 575.00 kg
Länge 0.30 m
Durchmesser 4.10 m
Spannweite 29.00 m
Form Box + pan
Hersteller SPXS
Bus-Typ Starlink V2MO
Phasenstatus In Orbit
Besitzer/Staat SPXS/US

Große Konstellationen

Loading constellations...